Time,TemperatureF,DewpointF,PressureIn,WindDirection,WindDirectionDegrees,WindSpeedMPH,WindSpeedGustMPH,Humidity,HourlyPrecipIn,Conditions,Clouds,dailyrainin,SoftwareType,DateUTC
2013-04-27 00:03:00,49.0,39.0,-100.00,West,264,0.0,0.0,68,0.00,,,0.00,,2013-04-27 04:03:00,
2013-04-27 00:13:00,49.0,39.0,-100.00,West,264,0.0,0.0,68,0.00,,,0.00,,2013-04-27 04:13:00,
2013-04-27 00:23:00,-999.0,39.0,-100.00,North,0,1.0,1.0,69,0.00,,,0.00,,2013-04-27 04:23:00,
2013-04-27 00:33:00,-999.0,39.0,-100.00,North,0,1.0,1.0,69,0.00,,,0.00,,2013-04-27 04:33:00,
2013-04-27 00:43:00,49.0,39.0,-100.00,North,1,0.0,0.0,67,0.00,,,0.00,,2013-04-27 04:43:00,
2013-04-27 00:53:00,49.0,39.0,-100.00,North,1,0.0,0.0,67,0.00,,,0.00,,2013-04-27 04:53:00,
2013-04-27 01:02:00,49.0,40.0,-100.00,NNW,330,2.0,2.0,72,0.00,,,0.00,,2013-04-27 05:02:00,
2013-04-27 01:12:00,49.0,40.0,-100.00,NNW,330,2.0,2.0,72,0.00,,,0.00,,2013-04-27 05:12:00,
2013-04-27 01:22:00,49.0,38.0,-100.00,NNW,336,1.0,2.0,66,0.00,,,0.00,,2013-04-27 05:22:00,
2013-04-27 01:32:00,49.0,38.0,-100.00,NNW,336,1.0,2.0,66,0.00,,,0.00,,2013-04-27 05:32:00,
2013-04-27 01:42:00,50.0,38.0,-100.00,NNW,329,0.0,1.0,65,0.00,,,0.00,,2013-04-27 05:42:00,
2013-04-27 01:52:00,50.0,38.0,-100.00,NNW,329,0.0,1.0,65,0.00,,,0.00,,2013-04-27 05:52:00,
2013-04-27 02:02:00,49.0,41.0,-100.00,NNW,337,2.0,2.0,72,0.00,,,0.00,,2013-04-27 06:02:00,
2013-04-27 02:12:00,49.0,41.0,-100.00,NNW,337,2.0,2.0,72,0.00,,,0.00,,2013-04-27 06:12:00,
2013-04-27 02:22:00,49.0,40.0,-100.00,NNE,21,0.0,1.0,70,0.00,,,0.00,,2013-04-27 06:22:00,
2013-04-27 02:32:00,49.0,40.0,-100.00,NNE,21,0.0,1.0,70,0.00,,,0.00,,2013-04-27 06:32:00,
2013-04-27 02:42:00,51.0,38.0,-100.00,NW,315,0.0,1.0,63,0.00,,,0.00,,2013-04-27 06:42:00,
2013-04-27 02:52:00,51.0,38.0,-100.00,NW,315,0.0,1.0,63,0.00,,,0.00,,2013-04-27 06:52:00,
2013-04-27 03:02:00,50.0,40.0,-100.00,NW,325,1.0,1.0,66,0.00,,,0.00,,2013-04-27 07:02:00,
2013-04-27 03:11:00,50.0,40.0,-100.00,NW,325,1.0,1.0,66,0.00,,,0.00,,2013-04-27 07:11:00,
2013-04-27 03:21:00,50.0,40.0,-100.00,NW,325,1.0,1.0,66,0.00,,,0.00,,2013-04-27 07:21:00,
2013-04-27 03:42:00,49.0,40.0,-100.00,North,0,2.0,2.0,72,0.00,,,0.00,,2013-04-27 07:42:00,
2013-04-27 03:52:00,49.0,40.0,-100.00,North,0,2.0,2.0,72,0.00,,,0.00,,2013-04-27 07:52:00,
2013-04-27 04:02:00,48.0,41.0,-100.00,NNW,332,0.0,1.0,75,0.00,,,0.00,,2013-04-27 08:02:00,
2013-04-27 04:12:00,48.0,41.0,-100.00,NNW,332,0.0,1.0,75,0.00,,,0.00,,2013-04-27 08:12:00,
2013-04-27 04:21:00,48.0,39.0,-100.00,West,261,0.0,0.0,71,0.00,,,0.00,,2013-04-27 08:21:00,
2013-04-27 04:33:00,48.0,39.0,-100.00,West,261,0.0,0.0,71,0.00,,,0.00,,2013-04-27 08:33:00,
2013-04-27 04:42:00,48.0,41.0,-100.00,NNW,335,1.0,1.0,76,0.00,,,0.00,,2013-04-27 08:42:00,
2013-04-27 04:52:00,47.0,40.0,-100.00,NW,323,0.0,0.0,76,0.00,,,0.00,,2013-04-27 08:52:00,
2013-04-27 05:01:00,47.0,40.0,-100.00,NW,323,0.0,0.0,76,0.00,,,0.00,,2013-04-27 09:01:00,
2013-04-27 05:11:00,47.0,40.0,-100.00,NW,323,0.0,0.0,76,0.00,,,0.00,,2013-04-27 09:11:00,
2013-04-27 05:22:00,47.0,40.0,-100.00,North,3,0.0,0.0,77,0.00,,,0.00,,2013-04-27 09:22:00,
2013-04-27 05:33:00,47.0,40.0,-100.00,North,3,0.0,0.0,77,0.00,,,0.00,,2013-04-27 09:33:00,
2013-04-27 05:43:00,47.0,40.0,-100.00,NNW,335,1.0,2.0,76,0.00,,,0.00,,2013-04-27 09:43:00,
2013-04-27 05:53:00,47.0,40.0,-100.00,NNW,335,1.0,2.0,76,0.00,,,0.00,,2013-04-27 09:53:00,
2013-04-27 06:03:00,45.0,40.0,-100.00,West,265,0.0,1.0,83,0.00,,,0.00,,2013-04-27 10:03:00,
2013-04-27 06:12:00,45.0,40.0,-100.00,West,265,0.0,1.0,83,0.00,,,0.00,,2013-04-27 10:12:00,
2013-04-27 06:22:00,46.0,40.0,-100.00,NW,308,0.0,1.0,80,0.00,,,0.00,,2013-04-27 10:22:00,
2013-04-27 06:33:00,46.0,40.0,-100.00,NW,308,0.0,1.0,80,0.00,,,0.00,,2013-04-27 10:33:00,
2013-04-27 06:42:00,46.0,40.0,-100.00,NNE,30,1.0,1.0,82,0.00,,,0.00,,2013-04-27 10:42:00,
2013-04-27 06:52:00,46.0,40.0,-100.00,NNE,30,1.0,1.0,82,0.00,,,0.00,,2013-04-27 10:52:00,
2013-04-27 07:02:00,46.0,39.0,-100.00,NE,45,2.0,3.0,77,0.00,,,0.00,,2013-04-27 11:02:00,
2013-04-27 07:12:00,46.0,39.0,-100.00,NE,45,2.0,3.0,77,0.00,,,0.00,,2013-04-27 11:12:00,
2013-04-27 07:22:00,46.0,40.0,-100.00,NNW,329,2.0,2.0,80,0.00,,,0.00,,2013-04-27 11:22:00,
2013-04-27 07:32:00,46.0,40.0,-100.00,NNW,329,2.0,2.0,80,0.00,,,0.00,,2013-04-27 11:32:00,
2013-04-27 07:42:00,46.0,41.0,-100.00,North,350,1.0,1.0,82,0.00,,,0.00,,2013-04-27 11:42:00,
2013-04-27 07:52:00,46.0,41.0,-100.00,North,350,1.0,1.0,82,0.00,,,0.00,,2013-04-27 11:52:00,
2013-04-27 08:02:00,46.0,41.0,-100.00,NNW,335,0.0,1.0,82,0.00,,,0.00,,2013-04-27 12:02:00,
2013-04-27 08:11:00,46.0,41.0,-100.00,NNW,335,0.0,1.0,82,0.00,,,0.00,,2013-04-27 12:11:00,
2013-04-27 08:22:00,48.0,41.0,-100.00,North,357,1.0,2.0,78,0.00,,,0.00,,2013-04-27 12:22:00,
2013-04-27 08:32:00,48.0,41.0,-100.00,North,357,1.0,2.0,78,0.00,,,0.00,,2013-04-27 12:32:00,
2013-04-27 08:42:00,49.0,41.0,-100.00,NNW,336,2.0,2.0,75,0.00,,,0.00,,2013-04-27 12:42:00,
2013-04-27 08:52:00,49.0,41.0,-100.00,NNW,336,2.0,2.0,75,0.00,,,0.00,,2013-04-27 12:52:00,
2013-04-27 09:02:00,50.0,41.0,-100.00,NW,323,2.0,3.0,71,0.00,,,0.00,,2013-04-27 13:02:00,
2013-04-27 09:12:00,50.0,41.0,-100.00,NW,323,2.0,3.0,71,0.00,,,0.00,,2013-04-27 13:12:00,
2013-04-27 09:22:00,51.0,41.0,-100.00,North,350,1.0,2.0,68,0.00,,,0.00,,2013-04-27 13:22:00,
2013-04-27 09:32:00,51.0,41.0,-100.00,North,350,1.0,2.0,68,0.00,,,0.00,,2013-04-27 13:32:00,
2013-04-27 09:42:00,51.0,40.0,-100.00,NE,45,2.0,4.0,64,0.00,,,0.00,,2013-04-27 13:42:00,
2013-04-27 09:52:00,51.0,40.0,-100.00,NE,45,2.0,4.0,64,0.00,,,0.00,,2013-04-27 13:52:00,
2013-04-27 10:02:00,52.0,40.0,-100.00,ENE,61,3.0,4.0,64,0.00,,,0.00,,2013-04-27 14:02:00,
2013-04-27 10:11:00,52.0,40.0,-100.00,ENE,61,3.0,4.0,64,0.00,,,0.00,,2013-04-27 14:11:00,
2013-04-27 10:22:00,53.0,42.0,-100.00,NNE,17,3.0,4.0,66,0.00,,,0.00,,2013-04-27 14:22:00,
2013-04-27 10:32:00,53.0,42.0,-100.00,NNE,17,3.0,4.0,66,0.00,,,0.00,,2013-04-27 14:32:00,
2013-04-27 10:42:00,54.0,40.0,-100.00,ENE,72,3.0,5.0,61,0.00,,,0.00,,2013-04-27 14:42:00,
2013-04-27 10:52:00,54.0,40.0,-100.00,ENE,72,3.0,5.0,61,0.00,,,0.00,,2013-04-27 14:52:00,
2013-04-27 11:01:00,55.0,39.0,-100.00,NE,47,3.0,4.0,56,0.00,,,0.00,,2013-04-27 15:01:00,
2013-04-27 11:12:00,55.0,39.0,-100.00,NE,47,3.0,4.0,56,0.00,,,0.00,,2013-04-27 15:12:00,
2013-04-27 11:22:00,58.0,40.0,-100.00,ESE,117,2.0,5.0,51,0.00,,,0.00,,2013-04-27 15:22:00,
2013-04-27 11:33:00,58.0,40.0,-100.00,ESE,117,2.0,5.0,51,0.00,,,0.00,,2013-04-27 15:33:00,
2013-04-27 11:43:00,58.0,40.0,-100.00,ESE,117,2.0,5.0,51,0.00,,,0.00,,2013-04-27 15:43:00,
2013-04-27 12:03:00,60.0,38.0,-100.00,WNW,301,2.0,3.0,44,0.00,,,0.00,,2013-04-27 16:03:00,
2013-04-27 12:13:00,60.0,38.0,-100.00,WNW,301,2.0,3.0,44,0.00,,,0.00,,2013-04-27 16:13:00,
2013-04-27 12:23:00,63.0,40.0,-100.00,SW,224,2.0,3.0,43,0.00,,,0.00,,2013-04-27 16:23:00,
2013-04-27 12:33:00,63.0,41.0,-100.00,ENE,78,2.0,3.0,44,0.00,,,0.00,,2013-04-27 16:33:00,
2013-04-27 12:42:00,63.0,41.0,-100.00,ENE,78,2.0,3.0,44,0.00,,,0.00,,2013-04-27 16:42:00,
2013-04-27 12:53:00,63.0,41.0,-100.00,ENE,78,2.0,3.0,44,0.00,,,0.00,,2013-04-27 16:53:00,
2013-04-27 13:02:00,65.0,42.0,-100.00,SSW,192,2.0,4.0,43,0.00,,,0.00,,2013-04-27 17:02:00,
2013-04-27 13:12:00,65.0,42.0,-100.00,SSW,192,2.0,4.0,43,0.00,,,0.00,,2013-04-27 17:12:00,
2013-04-27 13:22:00,64.0,43.0,-100.00,SSW,196,6.0,10.0,46,0.00,,,0.00,,2013-04-27 17:22:00,
2013-04-27 13:32:00,64.0,43.0,-100.00,SSW,196,6.0,10.0,46,0.00,,,0.00,,2013-04-27 17:32:00,
2013-04-27 13:42:00,64.0,42.0,-100.00,South,182,9.0,11.0,44,0.00,,,0.00,,2013-04-27 17:42:00,
2013-04-27 13:53:00,64.0,42.0,-100.00,South,182,9.0,11.0,44,0.00,,,0.00,,2013-04-27 17:53:00,
2013-04-27 14:02:00,64.0,41.0,-100.00,SSW,196,8.0,11.0,43,0.00,,,0.00,,2013-04-27 18:02:00,
2013-04-27 14:12:00,64.0,41.0,-100.00,SSW,196,8.0,11.0,43,0.00,,,0.00,,2013-04-27 18:12:00,
2013-04-27 14:22:00,64.0,41.0,-100.00,South,181,10.0,12.0,43,0.00,,,0.00,,2013-04-27 18:22:00,
2013-04-27 14:32:00,64.0,41.0,-100.00,South,181,10.0,12.0,43,0.00,,,0.00,,2013-04-27 18:32:00,
2013-04-27 14:42:00,64.0,44.0,-100.00,SSE,165,6.0,10.0,47,0.00,,,0.00,,2013-04-27 18:42:00,
2013-04-27 14:52:00,64.0,44.0,-100.00,SSE,165,6.0,10.0,47,0.00,,,0.00,,2013-04-27 18:52:00,
2013-04-27 15:02:00,65.0,40.0,-100.00,SSE,161,6.0,8.0,40,0.00,,,0.00,,2013-04-27 19:02:00,
2013-04-27 15:11:00,65.0,40.0,-100.00,SSE,161,6.0,8.0,40,0.00,,,0.00,,2013-04-27 19:11:00,
2013-04-27 15:22:00,65.0,39.0,-100.00,SSW,203,5.0,7.0,39,0.00,,,0.00,,2013-04-27 19:22:00,
2013-04-27 15:32:00,65.0,39.0,-100.00,SSW,203,5.0,7.0,39,0.00,,,0.00,,2013-04-27 19:32:00,
2013-04-27 15:42:00,65.0,40.0,-100.00,SSW,208,4.0,7.0,40,0.00,,,0.00,,2013-04-27 19:42:00,
2013-04-27 15:53:00,65.0,40.0,-100.00,SSW,208,4.0,7.0,40,0.00,,,0.00,,2013-04-27 19:53:00,
2013-04-27 16:02:00,65.0,39.0,-100.00,South,191,10.0,12.0,39,0.00,,,0.00,,2013-04-27 20:02:00,
2013-04-27 16:11:00,65.0,39.0,-100.00,South,191,10.0,12.0,39,0.00,,,0.00,,2013-04-27 20:11:00,
2013-04-27 16:22:00,64.0,41.0,-100.00,South,176,8.0,9.0,42,0.00,,,0.00,,2013-04-27 20:22:00,
2013-04-27 16:32:00,64.0,41.0,-100.00,South,176,8.0,9.0,42,0.00,,,0.00,,2013-04-27 20:32:00,
2013-04-27 16:42:00,64.0,41.0,-100.00,South,181,9.0,11.0,43,0.00,,,0.00,,2013-04-27 20:42:00,
2013-04-27 16:52:00,64.0,41.0,-100.00,South,181,9.0,11.0,43,0.00,,,0.00,,2013-04-27 20:52:00,
2013-04-27 17:02:00,64.0,44.0,-100.00,South,179,7.0,9.0,48,0.00,,,0.00,,2013-04-27 21:02:00,
2013-04-27 17:12:00,64.0,44.0,-100.00,South,179,7.0,9.0,48,0.00,,,0.00,,2013-04-27 21:12:00,
2013-04-27 17:22:00,63.0,41.0,-100.00,South,172,7.0,10.0,44,0.00,,,0.00,,2013-04-27 21:22:00,
2013-04-27 17:33:00,63.0,41.0,-100.00,South,172,7.0,10.0,44,0.00,,,0.00,,2013-04-27 21:33:00,
2013-04-27 17:43:00,63.0,40.0,-100.00,South,175,9.0,14.0,42,0.00,,,0.00,,2013-04-27 21:43:00,
2013-04-27 17:53:00,63.0,40.0,-100.00,South,175,9.0,14.0,42,0.00,,,0.00,,2013-04-27 21:53:00,
2013-04-27 18:03:00,63.0,42.0,-100.00,South,174,6.0,8.0,46,0.00,,,0.00,,2013-04-27 22:03:00,
2013-04-27 18:13:00,63.0,42.0,-100.00,South,174,6.0,8.0,46,0.00,,,0.00,,2013-04-27 22:13:00,
2013-04-27 18:23:00,63.0,42.0,-100.00,South,172,8.0,12.0,46,0.00,,,0.00,,2013-04-27 22:23:00,
2013-04-27 18:32:00,63.0,42.0,-100.00,South,172,8.0,12.0,46,0.00,,,0.00,,2013-04-27 22:32:00,
2013-04-27 18:42:00,63.0,41.0,-100.00,South,188,9.0,11.0,45,0.00,,,0.00,,2013-04-27 22:42:00,
2013-04-27 18:53:00,62.0,44.0,-100.00,SSW,195,5.0,7.0,52,0.00,,,0.00,,2013-04-27 22:53:00,
2013-04-27 19:02:00,62.0,44.0,-100.00,SSW,195,5.0,7.0,52,0.00,,,0.00,,2013-04-27 23:02:00,
2013-04-27 19:12:00,62.0,44.0,-100.00,SSW,195,5.0,7.0,52,0.00,,,0.00,,2013-04-27 23:12:00,
2013-04-27 19:22:00,62.0,44.0,-100.00,SSW,195,5.0,7.0,52,0.00,,,0.00,,2013-04-27 23:22:00,
2013-04-27 19:42:00,61.0,45.0,-100.00,SSW,193,6.0,8.0,56,0.00,,,0.00,,2013-04-27 23:42:00,
2013-04-27 19:52:00,61.0,45.0,-100.00,SSW,193,6.0,8.0,56,0.00,,,0.00,,2013-04-27 23:52:00,
2013-04-27 20:02:00,61.0,45.0,-100.00,SSW,192,7.0,9.0,57,0.00,,,0.00,,2013-04-28 00:02:00,
2013-04-27 20:12:00,61.0,45.0,-100.00,SSW,192,7.0,9.0,57,0.00,,,0.00,,2013-04-28 00:12:00,
2013-04-27 20:22:00,60.0,45.0,-100.00,SSW,192,6.0,9.0,57,0.00,,,0.00,,2013-04-28 00:22:00,
2013-04-27 20:32:00,60.0,45.0,-100.00,SSW,192,6.0,9.0,57,0.00,,,0.00,,2013-04-28 00:32:00,
2013-04-27 20:43:00,59.0,45.0,-100.00,South,179,4.0,7.0,60,0.00,,,0.00,,2013-04-28 00:43:00,
2013-04-27 20:52:00,58.0,46.0,-100.00,South,181,4.0,6.0,62,0.00,,,0.00,,2013-04-28 00:52:00,
2013-04-27 21:02:00,58.0,46.0,-100.00,South,181,4.0,6.0,62,0.00,,,0.00,,2013-04-28 01:02:00,
2013-04-27 21:11:00,58.0,46.0,-100.00,South,181,4.0,6.0,62,0.00,,,0.00,,2013-04-28 01:11:00,
2013-04-27 21:22:00,58.0,46.0,-100.00,South,181,5.0,7.0,64,0.00,,,0.00,,2013-04-28 01:22:00,
2013-04-27 21:32:00,58.0,46.0,-100.00,South,181,5.0,7.0,64,0.00,,,0.00,,2013-04-28 01:32:00,
2013-04-27 21:42:00,58.0,47.0,-100.00,South,182,5.0,7.0,66,0.00,,,0.00,,2013-04-28 01:42:00,
2013-04-27 21:52:00,58.0,47.0,-100.00,South,182,5.0,7.0,66,0.00,,,0.00,,2013-04-28 01:52:00,
2013-04-27 22:02:00,-999.0,47.0,-100.00,South,181,4.0,5.0,67,0.00,,,0.00,,2013-04-28 02:02:00,
2013-04-27 22:12:00,-999.0,47.0,-100.00,South,181,4.0,5.0,67,0.00,,,0.00,,2013-04-28 02:12:00,
2013-04-27 22:22:00,57.0,47.0,-100.00,SSE,168,4.0,5.0,70,0.00,,,0.00,,2013-04-28 02:22:00,
2013-04-27 22:32:00,57.0,47.0,-100.00,SSE,168,4.0,5.0,70,0.00,,,0.00,,2013-04-28 02:32:00,
2013-04-27 22:42:00,57.0,45.0,-100.00,South,175,4.0,4.0,66,0.00,,,0.00,,2013-04-28 02:42:00,
2013-04-27 22:52:00,57.0,45.0,-100.00,South,175,4.0,4.0,66,0.00,,,0.00,,2013-04-28 02:52:00,
2013-04-27 23:01:00,57.0,45.0,-100.00,South,179,4.0,5.0,64,0.00,,,0.00,,2013-04-28 03:01:00,
2013-04-27 23:12:00,57.0,45.0,-100.00,South,179,4.0,5.0,64,0.00,,,0.00,,2013-04-28 03:12:00,
2013-04-27 23:22:00,57.0,45.0,-100.00,South,178,5.0,6.0,65,0.00,,,0.00,,2013-04-28 03:22:00,
2013-04-27 23:33:00,57.0,45.0,-100.00,South,178,5.0,6.0,65,0.00,,,0.00,,2013-04-28 03:33:00,
2013-04-27 23:43:00,57.0,45.0,-100.00,South,178,5.0,6.0,65,0.00,,,0.00,,2013-04-28 03:43:00,